TimeEST,TemperatureF,Dew PointF,Humidity,Sea Level PressureIn,VisibilityMPH,Wind Direction,Wind SpeedMPH,Gust SpeedMPH,PrecipitationIn,Events,Conditions,WindDirDegrees,DateUTC
12:15 AM,28.4,26.6,93,29.92,7.0,West,16.1,21.9,N/A,Snow,Light Snow,270,2012-01-02 05:15:00
12:35 AM,28.4,26.6,93,29.92,7.0,West,13.8,17.3,N/A,Snow,Light Snow,270,2012-01-02 05:35:00
1:15 AM,28.4,26.6,93,29.92,7.0,West,19.6,29.9,N/A,,Overcast,270,2012-01-02 06:15:00
1:35 AM,28.4,26.6,93,29.92,10.0,West,12.7,18.4,N/A,,Overcast,270,2012-01-02 06:35:00
1:54 AM,28.4,26.6,93,29.92,7.0,West,16.1,20.7,N/A,Snow,Light Snow,270,2012-01-02 06:54:00
2:15 AM,28.4,26.6,93,29.93,2.5,West,16.1,21.9,N/A,Snow,Light Snow,280,2012-01-02 07:15:00
2:35 AM,28.4,26.6,93,29.94,3.0,West,13.8,-,N/A,Snow,Light Snow,280,2012-01-02 07:35:00
2:54 AM,28.4,26.6,93,29.94,2.0,WNW,13.8,-,N/A,Snow,Light Snow,290,2012-01-02 07:54:00
3:15 AM,28.4,26.6,93,29.94,1.2,WNW,13.8,19.6,N/A,Snow,Snow,290,2012-01-02 08:15:00
3:34 AM,28.4,26.6,93,29.94,1.8,WNW,12.7,-,N/A,Snow,Light Snow,290,2012-01-02 08:34:00
3:55 AM,28.4,26.6,93,29.94,1.2,WNW,15.0,21.9,N/A,Snow,Light Snow,290,2012-01-02 08:55:00
4:15 AM,28.4,26.6,93,29.94,2.5,West,16.1,-,N/A,Snow,Light Snow,280,2012-01-02 09:15:00
4:34 AM,26.6,26.6,100,29.94,1.5,West,17.3,-,N/A,Snow,Light Snow,280,2012-01-02 09:34:00
4:55 AM,26.6,24.8,93,29.94,2.0,West,19.6,-,N/A,Snow,Light Snow,280,2012-01-02 09:55:00
5:35 AM,26.6,24.8,93,29.94,1.2,West,16.1,21.9,N/A,Snow,Light Snow,270,2012-01-02 10:35:00
5:55 AM,26.6,23.0,86,29.94,3.0,WNW,16.1,21.9,N/A,Snow,Light Snow,290,2012-01-02 10:55:00
6:14 AM,26.6,23.0,86,29.94,4.0,WNW,11.5,-,N/A,Snow,Light Snow,290,2012-01-02 11:14:00
6:35 AM,26.6,23.0,86,29.95,5.0,WNW,16.1,23.0,N/A,Snow,Light Snow,290,2012-01-02 11:35:00
6:55 AM,24.8,23.0,93,29.95,3.0,West,13.8,20.7,N/A,Snow,Light Snow,280,2012-01-02 11:55:00
7:14 AM,24.8,23.0,93,29.95,4.0,West,16.1,-,N/A,Snow,Light Snow,280,2012-01-02 12:14:00
7:35 AM,24.8,23.0,93,29.96,2.5,WNW,17.3,23.0,N/A,Snow,Light Snow,290,2012-01-02 12:35:00
7:55 AM,24.8,23.0,93,29.96,3.0,WNW,12.7,-,N/A,Snow,Light Snow,290,2012-01-02 12:55:00
8:14 AM,24.8,23.0,93,29.97,1.5,WNW,12.7,16.1,N/A,Snow,Light Snow,290,2012-01-02 13:14:00
8:35 AM,24.8,23.0,93,29.97,1.2,WNW,12.7,-,N/A,Snow,Light Snow,290,2012-01-02 13:35:00
8:55 AM,24.8,23.0,93,29.98,1.2,WNW,13.8,19.6,N/A,Snow,Light Snow,300,2012-01-02 13:55:00
9:14 AM,24.8,23.0,93,29.98,2.5,WNW,12.7,21.9,N/A,Snow,Light Snow,290,2012-01-02 14:14:00
9:35 AM,24.8,23.0,93,29.99,1.2,WNW,13.8,-,N/A,Snow,Light Snow,290,2012-01-02 14:35:00
9:55 AM,24.8,23.0,93,30.00,2.5,WNW,15.0,-,N/A,Snow,Light Snow,290,2012-01-02 14:55:00
10:15 AM,24.8,21.2,86,30.01,2.0,WNW,13.8,-,N/A,Snow,Light Snow,290,2012-01-02 15:15:00
10:35 AM,24.8,23.0,93,30.02,0.5,WNW,9.2,16.1,N/A,Snow,Snow,300,2012-01-02 15:35:00
11:15 AM,24.8,23.0,93,30.02,1.5,West,12.7,-,N/A,Snow,Light Snow,280,2012-01-02 16:15:00
11:35 AM,24.8,21.2,86,30.02,4.0,WNW,16.1,-,N/A,Snow,Light Snow,290,2012-01-02 16:35:00
11:54 AM,24.8,21.2,86,30.01,5.0,WNW,12.7,-,N/A,,Overcast,300,2012-01-02 16:54:00
12:15 PM,26.6,21.2,80,30.01,5.0,WNW,13.8,21.9,N/A,Snow,Light Snow,290,2012-01-02 17:15:00
12:34 PM,26.6,23.0,86,30.01,1.8,WNW,9.2,-,N/A,Snow,Light Snow,300,2012-01-02 17:34:00
12:55 PM,26.6,23.0,86,30.01,5.0,WNW,12.7,19.6,N/A,Snow,Light Snow,290,2012-01-02 17:55:00
1:15 PM,26.6,23.0,86,30.01,1.8,WNW,15.0,-,N/A,Snow,Light Snow,300,2012-01-02 18:15:00
1:34 PM,26.6,23.0,86,30.01,4.0,WNW,11.5,19.6,N/A,,Overcast,300,2012-01-02 18:34:00
1:55 PM,26.6,23.0,86,30.02,4.0,WNW,17.3,25.3,N/A,Snow,Light Snow,290,2012-01-02 18:55:00
2:15 PM,26.6,23.0,86,30.02,3.0,WNW,15.0,20.7,N/A,Snow,Light Snow,300,2012-01-02 19:15:00
2:34 PM,26.6,23.0,86,30.02,3.0,WNW,17.3,-,N/A,Snow,Light Snow,290,2012-01-02 19:34:00
2:55 PM,26.6,21.2,80,30.04,10.0,WNW,11.5,20.7,N/A,,Overcast,300,2012-01-02 19:55:00
3:14 PM,26.6,21.2,80,30.05,5.0,WNW,15.0,20.7,N/A,Snow,Light Snow,300,2012-01-02 20:14:00
3:35 PM,26.6,23.0,86,30.06,1.5,NNW,10.4,-,N/A,Snow,Light Snow,330,2012-01-02 20:35:00
3:55 PM,24.8,21.2,86,30.08,0.8,NW,12.7,21.9,N/A,Snow,Light Snow,320,2012-01-02 20:55:00
4:14 PM,24.8,21.2,86,30.09,1.0,NNW,10.4,17.3,N/A,Snow,Light Snow,330,2012-01-02 21:14:00
4:35 PM,23.0,21.2,93,30.10,0.5,NW,13.8,19.6,N/A,Snow,Snow,320,2012-01-02 21:35:00
4:54 PM,23.0,21.2,93,30.11,1.0,NW,12.7,20.7,N/A,Snow,Light Snow,320,2012-01-02 21:54:00
5:15 PM,23.0,21.2,93,30.12,3.0,NW,12.7,18.4,N/A,Snow,Light Snow,310,2012-01-02 22:15:00
5:35 PM,23.0,21.2,93,30.13,5.0,NW,10.4,-,N/A,Snow,Light Snow,310,2012-01-02 22:35:00
5:54 PM,23.0,21.2,93,30.14,3.0,NW,9.2,16.1,N/A,Snow,Light Snow,310,2012-01-02 22:54:00
6:15 PM,23.0,21.2,93,30.15,7.0,NW,9.2,-,N/A,Snow,Light Snow,310,2012-01-02 23:15:00
6:35 PM,23.0,19.4,86,30.16,10.0,NW,11.5,-,N/A,,Overcast,310,2012-01-02 23:35:00
6:54 PM,23.0,19.4,86,30.16,4.0,NW,11.5,-,N/A,Snow,Light Snow,310,2012-01-02 23:54:00
7:15 PM,23.0,19.4,86,30.17,7.0,NW,10.4,17.3,N/A,Snow,Light Snow,320,2012-01-03 00:15:00
7:35 PM,23.0,19.4,86,30.18,10.0,NW,10.4,18.4,N/A,,Overcast,320,2012-01-03 00:35:00
7:54 PM,23.0,19.4,86,30.18,10.0,NW,10.4,16.1,N/A,,Overcast,320,2012-01-03 00:54:00
8:15 PM,23.0,17.6,80,30.19,10.0,NW,11.5,-,N/A,,Mostly Cloudy,310,2012-01-03 01:15:00
8:34 PM,21.2,17.6,86,30.20,10.0,NW,8.1,-,N/A,,Overcast,310,2012-01-03 01:34:00
8:55 PM,21.2,17.6,86,30.20,10.0,WNW,8.1,-,N/A,,Mostly Cloudy,300,2012-01-03 01:55:00
9:15 PM,21.2,17.6,86,30.20,10.0,NW,8.1,-,N/A,,Mostly Cloudy,320,2012-01-03 02:15:00
9:34 PM,21.2,17.6,86,30.21,10.0,NW,8.1,-,N/A,,Mostly Cloudy,320,2012-01-03 02:34:00
9:55 PM,21.2,15.8,80,30.21,10.0,NW,9.2,-,N/A,,Scattered Clouds,320,2012-01-03 02:55:00
10:15 PM,19.4,14.0,80,30.22,10.0,NW,8.1,-,N/A,,Mostly Cloudy,320,2012-01-03 03:15:00
10:35 PM,21.2,14.0,74,30.22,10.0,NW,8.1,-,N/A,,Overcast,310,2012-01-03 03:35:00
10:55 PM,19.4,14.0,80,30.23,10.0,NNW,8.1,-,N/A,,Overcast,330,2012-01-03 03:55:00
11:14 PM,19.4,12.2,74,30.24,10.0,NNW,9.2,-,N/A,,Mostly Cloudy,330,2012-01-03 04:14:00
11:35 PM,19.4,12.2,74,30.24,10.0,NNW,5.8,-,N/A,,Clear,330,2012-01-03 04:35:00
11:55 PM,17.6,12.2,79,30.24,10.0,NW,6.9,-,N/A,,Scattered Clouds,320,2012-01-03 04:55:00